DLH77M EDDM-LEBL

Flight info

Callsign DLH77M
Flight time 1h 50m
Altitude 37000
Route TURBU7S TURBU Y107 TOBSO DCT BAKOR DCT GEKBA DCT VAMTU DCT KOLON DCT GANGU DCT PADKO DCT DIVKO DCT NILDU N975 BISBA
Aircraft A320/M-SDE3FGHIRWY/LB1

Departure

Time 2026-05-07 15:29
Airport Munich Airport (EDDM)

Arrival

Time 2026-05-07 17:20
Airport Josep Tarradellas Barcelona-El Prat Airport (LEBL)
Time Latitude Longitude Altitude Speed Heading
2026-05-07 14:50 48.35586 11.79275 1467 ft 0 kts 263°
2026-05-07 15:18 48.35586 11.79281 1467 ft 3 kts 263°
2026-05-07 15:18 48.35590 11.79321 1458 ft 4 kts 259°
2026-05-07 15:18 48.35596 11.79361 1462 ft 4 kts 252°
2026-05-07 15:18 48.35606 11.79398 1460 ft 4 kts 237°
2026-05-07 15:19 48.35623 11.79423 1458 ft 4 kts 186°
2026-05-07 15:19 48.35632 11.79423 1464 ft 1 kts 174°
2026-05-07 15:22 48.35631 11.79424 1459 ft 1 kts 173°
2026-05-07 15:23 48.35607 11.79447 1467 ft 4 kts 129°
2026-05-07 15:23 48.35593 11.79475 1462 ft 3 kts 126°
2026-05-07 15:23 48.35577 11.79508 1460 ft 8 kts 126°
2026-05-07 15:23 48.35498 11.79581 1461 ft 17 kts 166°
2026-05-07 15:24 48.35390 11.79610 1467 ft 15 kts 173°
2026-05-07 15:24 48.35295 11.79618 1467 ft 13 kts 180°
2026-05-07 15:24 48.35214 11.79627 1467 ft 11 kts 171°
2026-05-07 15:24 48.35139 11.79646 1460 ft 13 kts 171°
2026-05-07 15:25 48.35035 11.79665 1463 ft 14 kts 174°
2026-05-07 15:25 48.34941 11.79679 1466 ft 13 kts 174°
2026-05-07 15:25 48.34861 11.79692 1462 ft 12 kts 174°
2026-05-07 15:25 48.34808 11.79787 1467 ft 13 kts 87°
2026-05-07 15:26 48.34813 11.79914 1467 ft 11 kts 84°
2026-05-07 15:26 48.34822 11.80020 1467 ft 9 kts 83°
2026-05-07 15:26 48.34824 11.80104 1467 ft 8 kts 104°
2026-05-07 15:26 48.34771 11.80215 1460 ft 17 kts 144°
2026-05-07 15:27 48.34666 11.80253 1459 ft 15 kts 173°
2026-05-07 15:27 48.34568 11.80271 1463 ft 13 kts 173°
2026-05-07 15:27 48.34491 11.80283 1466 ft 9 kts 179°
2026-05-07 15:27 48.34460 11.80250 1466 ft 5 kts 255°
2026-05-07 15:28 48.34459 11.80220 1469 ft 0 kts 263°
2026-05-07 15:28 48.34458 11.80217 1469 ft 2 kts 263°
2026-05-07 15:28 48.34438 11.79938 1465 ft 62 kts 263°
2026-05-07 15:28 48.34363 11.78967 1462 ft 123 kts 263°
2026-05-07 15:29 48.34245 11.77445 1472 ft 169 kts 264°
2026-05-07 15:29 48.34116 11.75655 2020 ft 171 kts 268°
2026-05-07 15:29 48.33993 11.73876 2779 ft 174 kts 266°
2026-05-07 15:29 48.33708 11.72000 3073 ft 200 kts 242°
2026-05-07 15:30 48.32571 11.70678 3480 ft 220 kts 198°
2026-05-07 15:30 48.31023 11.70373 4145 ft 228 kts 185°
2026-05-07 15:30 48.29432 11.70490 4958 ft 233 kts 169°
2026-05-07 15:30 48.27910 11.71461 5585 ft 249 kts 149°
2026-05-07 15:31 48.26451 11.73086 5973 ft 273 kts 145°
2026-05-07 15:31 48.24868 11.74780 6673 ft 284 kts 147°
2026-05-07 15:31 48.23228 11.76462 7578 ft 286 kts 148°
2026-05-07 15:31 48.21565 11.78139 8455 ft 290 kts 149°
2026-05-07 15:32 48.19894 11.79789 9291 ft 292 kts 152°
2026-05-07 15:32 48.18031 11.80985 10094 ft 292 kts 164°
2026-05-07 15:32 48.16072 11.82013 10572 ft 308 kts 164°
2026-05-07 15:32 48.13968 11.83108 10789 ft 332 kts 164°
2026-05-07 15:33 48.11711 11.84286 11008 ft 353 kts 163°
2026-05-07 15:33 48.09364 11.85518 11533 ft 361 kts 163°
2026-05-07 15:33 48.06975 11.86774 12190 ft 366 kts 163°
2026-05-07 15:33 48.04556 11.88043 12866 ft 370 kts 164°
2026-05-07 15:34 48.02118 11.89316 13555 ft 373 kts 164°
2026-05-07 15:34 47.99656 11.90595 14197 ft 376 kts 164°
2026-05-07 15:34 47.97169 11.91883 14778 ft 380 kts 164°
2026-05-07 15:34 47.94659 11.93180 15346 ft 384 kts 164°
2026-05-07 15:35 47.92094 11.94322 15908 ft 385 kts 171°
2026-05-07 15:35 47.89441 11.94829 16478 ft 384 kts 181°
2026-05-07 15:35 47.86793 11.94806 17022 ft 387 kts 184°
2026-05-07 15:35 47.84089 11.94744 17576 ft 390 kts 184°
2026-05-07 15:36 47.81359 11.94682 18110 ft 393 kts 184°
2026-05-07 15:36 47.78612 11.94620 18583 ft 396 kts 183°
2026-05-07 15:36 47.75840 11.94564 19045 ft 400 kts 183°
2026-05-07 15:36 47.73049 11.94511 19509 ft 403 kts 183°
2026-05-07 15:37 47.70238 11.94461 19968 ft 406 kts 183°
2026-05-07 15:37 47.67402 11.94413 20415 ft 408 kts 183°
2026-05-07 15:37 47.64548 11.94374 20834 ft 412 kts 183°
2026-05-07 15:37 47.61666 11.94337 21268 ft 414 kts 182°
2026-05-07 15:38 47.58770 11.94297 21656 ft 418 kts 182°
2026-05-07 15:38 47.55891 11.94250 22079 ft 421 kts 182°
2026-05-07 15:38 47.52945 11.94198 22522 ft 424 kts 183°
2026-05-07 15:38 47.49977 11.94142 22946 ft 427 kts 183°
2026-05-07 15:39 47.46999 11.94085 23336 ft 430 kts 182°
2026-05-07 15:39 47.43998 11.94027 23714 ft 432 kts 184°
2026-05-07 15:39 47.41006 11.93597 24058 ft 432 kts 190°
2026-05-07 15:39 47.38020 11.92982 24417 ft 434 kts 190°
2026-05-07 15:40 47.35025 11.92372 24780 ft 435 kts 190°
2026-05-07 15:40 47.32014 11.91771 25150 ft 436 kts 189°
2026-05-07 15:40 47.28994 11.91179 25511 ft 438 kts 189°
2026-05-07 15:40 47.25969 11.90582 25872 ft 440 kts 189°
2026-05-07 15:41 47.22935 11.89982 26224 ft 441 kts 189°
2026-05-07 15:41 47.19886 11.89380 26560 ft 442 kts 189°
2026-05-07 15:41 47.16870 11.88784 26875 ft 444 kts 189°
2026-05-07 15:41 47.16827 11.88775 26880 ft 444 kts 189°
2026-05-07 15:42 47.15097 11.88432 27055 ft 444 kts 189°
2026-05-07 15:42 47.12027 11.87824 27372 ft 446 kts 189°
2026-05-07 15:43 47.08946 11.87217 27666 ft 447 kts 189°
2026-05-07 15:43 47.05853 11.86600 27991 ft 449 kts 190°
2026-05-07 15:43 47.02756 11.85979 28283 ft 450 kts 190°
2026-05-07 15:43 46.99659 11.85279 28601 ft 450 kts 192°
2026-05-07 15:44 46.96592 11.84410 29000 ft 448 kts 194°
2026-05-07 15:44 46.93549 11.83425 29349 ft 448 kts 195°
2026-05-07 15:44 46.90520 11.82383 29750 ft 446 kts 196°
2026-05-07 15:44 46.87507 11.81341 30152 ft 445 kts 196°
2026-05-07 15:45 46.84494 11.80319 30503 ft 444 kts 195°
2026-05-07 15:45 46.81528 11.79344 30852 ft 442 kts 195°
2026-05-07 15:45 46.78615 11.78416 31159 ft 441 kts 195°
2026-05-07 15:45 46.75615 11.77474 31441 ft 441 kts 196°
2026-05-07 15:46 46.69610 11.75605 32074 ft 439 kts 197°
2026-05-07 15:46 46.66631 11.74662 32369 ft 438 kts 199°
2026-05-07 15:46 46.63766 11.73273 32687 ft 431 kts 208°
2026-05-07 15:47 46.61142 11.71236 33006 ft 425 kts 217°
2026-05-07 15:47 46.58818 11.68627 33325 ft 420 kts 226°
2026-05-07 15:47 46.56842 11.65529 33646 ft 414 kts 234°
2026-05-07 15:47 46.55058 11.62247 33987 ft 413 kts 234°
2026-05-07 15:48 46.53289 11.59038 34242 ft 412 kts 234°
2026-05-07 15:48 46.51485 11.55788 34486 ft 413 kts 234°
2026-05-07 15:48 46.49679 11.52548 34765 ft 412 kts 234°
2026-05-07 15:48 46.47875 11.49316 35027 ft 412 kts 233°
2026-05-07 15:49 46.46070 11.46089 35264 ft 411 kts 233°
2026-05-07 15:49 46.44266 11.42865 35454 ft 412 kts 233°
2026-05-07 15:49 46.42459 11.39633 35636 ft 412 kts 233°
2026-05-07 15:49 46.40653 11.36399 35829 ft 412 kts 233°
2026-05-07 15:50 46.38850 11.33169 36118 ft 411 kts 233°
2026-05-07 15:50 46.37056 11.29954 36369 ft 410 kts 233°
2026-05-07 15:50 46.35262 11.26746 36609 ft 410 kts 233°
2026-05-07 15:50 46.33466 11.23541 36797 ft 411 kts 233°
2026-05-07 15:51 46.31685 11.20369 36953 ft 410 kts 233°
2026-05-07 15:51 46.28077 11.13957 37067 ft 412 kts 233°
2026-05-07 15:52 46.24434 11.07491 37059 ft 414 kts 233°
2026-05-07 15:52 46.20786 11.01031 37053 ft 415 kts 233°
2026-05-07 15:53 46.17750 10.95667 37053 ft 415 kts 233°
2026-05-07 15:53 46.13486 10.88154 37047 ft 416 kts 233°
2026-05-07 15:54 46.10442 10.82807 37032 ft 416 kts 233°
2026-05-07 15:54 46.06766 10.76366 37027 ft 416 kts 233°
2026-05-07 15:55 46.03095 10.69938 37014 ft 415 kts 233°
2026-05-07 15:55 45.99423 10.63523 37014 ft 414 kts 233°
2026-05-07 15:56 45.95753 10.57126 37014 ft 415 kts 233°
2026-05-07 15:56 45.92084 10.50743 36989 ft 413 kts 233°
2026-05-07 15:57 45.88404 10.44364 36970 ft 415 kts 233°
2026-05-07 15:57 45.84729 10.38009 36972 ft 413 kts 233°
2026-05-07 15:58 45.81054 10.31666 36990 ft 413 kts 233°
2026-05-07 15:58 45.77404 10.25372 36981 ft 412 kts 233°
2026-05-07 15:59 45.73733 10.19061 36979 ft 412 kts 233°
2026-05-07 15:59 45.70060 10.12773 36948 ft 411 kts 232°
2026-05-07 16:00 45.66389 10.06509 36969 ft 410 kts 232°
2026-05-07 16:00 45.62730 10.00260 36975 ft 409 kts 233°
2026-05-07 16:01 45.59080 9.94028 36982 ft 409 kts 232°
2026-05-07 16:01 45.55440 9.87845 36975 ft 408 kts 232°
2026-05-07 16:02 45.51782 9.81642 36965 ft 408 kts 232°
2026-05-07 16:02 45.48119 9.75450 37020 ft 408 kts 232°
2026-05-07 16:03 45.44463 9.69271 37024 ft 408 kts 232°
2026-05-07 16:03 45.40804 9.63101 37023 ft 408 kts 232°
2026-05-07 16:04 45.37131 9.56920 37002 ft 408 kts 232°
2026-05-07 16:04 45.33454 9.50760 37001 ft 408 kts 232°
2026-05-07 16:05 45.29771 9.44606 36992 ft 408 kts 232°
2026-05-07 16:05 45.26092 9.38459 36985 ft 408 kts 232°
2026-05-07 16:06 45.22414 9.32326 36966 ft 408 kts 232°
2026-05-07 16:06 45.18750 9.26235 36956 ft 408 kts 231°
2026-05-07 16:07 45.15061 9.20112 36963 ft 408 kts 231°
2026-05-07 16:07 45.11375 9.13990 36966 ft 408 kts 231°
2026-05-07 16:08 45.07675 9.07896 36973 ft 408 kts 231°
2026-05-07 16:08 45.03975 9.01811 36973 ft 408 kts 231°
2026-05-07 16:09 45.00273 8.95709 36975 ft 407 kts 231°
2026-05-07 16:09 44.96578 8.89644 36976 ft 407 kts 231°
2026-05-07 16:10 44.92885 8.83594 36979 ft 406 kts 231°
2026-05-07 16:10 44.89209 8.77593 37000 ft 406 kts 231°
2026-05-07 16:11 44.85512 8.71567 36962 ft 406 kts 231°
2026-05-07 16:11 44.81809 8.65547 36977 ft 406 kts 231°
2026-05-07 16:12 44.78114 8.59542 36980 ft 405 kts 231°
2026-05-07 16:12 44.74410 8.53537 36993 ft 405 kts 231°
2026-05-07 16:13 44.70708 8.47560 36990 ft 405 kts 231°
2026-05-07 16:13 44.67009 8.41596 36984 ft 405 kts 231°
2026-05-07 16:14 44.63334 8.35685 36991 ft 404 kts 231°
2026-05-07 16:14 44.59639 8.29748 37000 ft 403 kts 231°
2026-05-07 16:15 44.55943 8.23821 36997 ft 403 kts 231°
2026-05-07 16:15 44.52252 8.17917 36994 ft 402 kts 231°
2026-05-07 16:16 44.48568 8.12034 36993 ft 402 kts 230°
2026-05-07 16:16 44.44878 8.06155 36989 ft 402 kts 230°
2026-05-07 16:17 44.41186 8.00281 36993 ft 401 kts 230°
2026-05-07 16:17 44.37515 7.94448 36999 ft 402 kts 230°
2026-05-07 16:18 44.33806 7.88592 36978 ft 402 kts 230°
2026-05-07 16:18 44.30101 7.82741 36985 ft 402 kts 230°
2026-05-07 16:19 44.26319 7.77008 36994 ft 403 kts 224°
2026-05-07 16:19 44.22117 7.71832 36993 ft 403 kts 224°
2026-05-07 16:20 44.17911 7.66658 36993 ft 404 kts 224°
2026-05-07 16:20 44.13807 7.61350 36992 ft 401 kts 231°
2026-05-07 16:21 44.10164 7.55492 37008 ft 400 kts 231°
2026-05-07 16:21 44.06521 7.49659 37009 ft 399 kts 230°
2026-05-07 16:22 44.02891 7.43874 37010 ft 399 kts 230°
2026-05-07 16:22 43.99236 7.38065 37004 ft 399 kts 231°
2026-05-07 16:23 43.95591 7.32264 37000 ft 398 kts 231°
2026-05-07 16:23 43.91958 7.26484 36999 ft 397 kts 231°
2026-05-07 16:24 43.88329 7.20726 37000 ft 396 kts 230°
2026-05-07 16:24 43.84665 7.14942 37001 ft 397 kts 230°
2026-05-07 16:25 43.81048 7.09250 36996 ft 395 kts 230°
2026-05-07 16:25 43.77418 7.03541 36994 ft 395 kts 230°
2026-05-07 16:26 43.73783 6.97823 36989 ft 395 kts 232°
2026-05-07 16:26 43.71010 6.91293 37002 ft 397 kts 248°
2026-05-07 16:27 43.68937 6.84204 37013 ft 397 kts 247°
2026-05-07 16:27 43.66852 6.77158 37000 ft 396 kts 247°
2026-05-07 16:28 43.64771 6.70136 36983 ft 395 kts 247°
2026-05-07 16:28 43.62692 6.63126 36967 ft 393 kts 247°
2026-05-07 16:29 43.60619 6.56147 36974 ft 392 kts 247°
2026-05-07 16:29 43.58562 6.49233 36963 ft 392 kts 247°
2026-05-07 16:30 43.56485 6.42293 36976 ft 391 kts 246°
2026-05-07 16:30 43.54407 6.35356 36969 ft 391 kts 246°
2026-05-07 16:31 43.52325 6.28436 36961 ft 391 kts 246°
2026-05-07 16:31 43.50230 6.21493 36957 ft 391 kts 246°
2026-05-07 16:32 43.48147 6.14587 36949 ft 388 kts 246°
2026-05-07 16:32 43.46061 6.07706 36950 ft 390 kts 246°
2026-05-07 16:33 43.43965 6.00813 36961 ft 390 kts 246°
2026-05-07 16:33 43.41876 5.93945 36970 ft 389 kts 246°
2026-05-07 16:34 43.39780 5.87089 36972 ft 388 kts 246°
2026-05-07 16:34 43.37691 5.80288 36970 ft 388 kts 246°
2026-05-07 16:35 43.35594 5.73443 36966 ft 388 kts 246°
2026-05-07 16:35 43.33500 5.66616 36972 ft 389 kts 245°
2026-05-07 16:36 43.31386 5.59775 36971 ft 389 kts 245°
2026-05-07 16:36 43.29265 5.52944 36953 ft 389 kts 245°
2026-05-07 16:37 43.27149 5.46112 36960 ft 389 kts 245°
2026-05-07 16:37 43.25393 5.40446 36965 ft 388 kts 245°
2026-05-07 16:38 43.22924 5.32515 36992 ft 388 kts 245°
2026-05-07 16:38 43.21139 5.26815 36984 ft 388 kts 245°
2026-05-07 16:39 43.19020 5.20064 36978 ft 388 kts 245°
2026-05-07 16:39 43.16885 5.13266 36972 ft 388 kts 245°
2026-05-07 16:40 43.14742 5.06464 36972 ft 388 kts 245°
2026-05-07 16:40 43.12595 4.99670 36970 ft 388 kts 245°
2026-05-07 16:41 43.10453 4.92916 36963 ft 389 kts 244°
2026-05-07 16:41 43.08295 4.86122 36959 ft 389 kts 244°
2026-05-07 16:42 43.06015 4.79409 36958 ft 388 kts 237°
2026-05-07 16:42 43.02502 4.73906 36956 ft 388 kts 223°
2026-05-07 16:43 42.98447 4.69025 36955 ft 389 kts 223°
2026-05-07 16:43 42.94388 4.64116 36956 ft 389 kts 223°
2026-05-07 16:44 42.90331 4.59211 36942 ft 390 kts 223°
2026-05-07 16:44 42.86257 4.54303 36959 ft 391 kts 223°
2026-05-07 16:45 42.82159 4.49393 36958 ft 392 kts 222°
2026-05-07 16:45 42.78060 4.44491 36958 ft 393 kts 222°
2026-05-07 16:46 42.73956 4.39581 36951 ft 393 kts 223°
2026-05-07 16:46 42.69852 4.34661 36956 ft 393 kts 223°
2026-05-07 16:47 42.65761 4.29782 36960 ft 393 kts 222°
2026-05-07 16:47 42.61644 4.24887 36964 ft 394 kts 222°
2026-05-07 16:48 42.57521 4.19983 36963 ft 394 kts 222°
2026-05-07 16:48 42.53397 4.15089 36964 ft 394 kts 222°
2026-05-07 16:49 42.49267 4.10194 36970 ft 394 kts 222°
2026-05-07 16:49 42.45153 4.05335 36974 ft 394 kts 222°
2026-05-07 16:50 42.41019 4.00456 36971 ft 394 kts 222°
2026-05-07 16:50 42.38951 3.98024 36769 ft 394 kts 222°
2026-05-07 16:50 42.36884 3.95598 36491 ft 392 kts 222°
2026-05-07 16:50 42.34826 3.93184 35847 ft 391 kts 222°
2026-05-07 16:51 42.32772 3.90779 35146 ft 391 kts 222°
2026-05-07 16:51 42.30714 3.88369 34398 ft 392 kts 222°
2026-05-07 16:51 42.28651 3.85952 33567 ft 394 kts 222°
2026-05-07 16:51 42.26585 3.83533 32741 ft 393 kts 222°
2026-05-07 16:52 42.24513 3.81105 31827 ft 396 kts 221°
2026-05-07 16:52 42.22421 3.78653 30848 ft 400 kts 221°
2026-05-07 16:52 42.20335 3.76210 29861 ft 404 kts 221°
2026-05-07 16:52 42.18196 3.73705 28651 ft 410 kts 221°
2026-05-07 16:53 42.16023 3.71166 27608 ft 414 kts 221°
2026-05-07 16:53 42.13857 3.68643 27128 ft 406 kts 221°
2026-05-07 16:53 42.11757 3.66202 26852 ft 392 kts 221°
2026-05-07 16:53 42.09790 3.63750 26599 ft 379 kts 227°
2026-05-07 16:54 42.08224 3.60944 26348 ft 373 kts 238°
2026-05-07 16:54 42.07068 3.57824 26096 ft 373 kts 244°
2026-05-07 16:54 42.06021 3.54637 25849 ft 372 kts 244°
2026-05-07 16:54 42.04970 3.51458 25615 ft 372 kts 244°
2026-05-07 16:55 42.03917 3.48283 25257 ft 370 kts 244°
2026-05-07 16:55 42.02867 3.45128 24880 ft 369 kts 244°
2026-05-07 16:55 42.01816 3.41979 24486 ft 369 kts 244°
2026-05-07 16:55 42.00765 3.38833 24125 ft 368 kts 244°
2026-05-07 16:56 41.99718 3.35698 23749 ft 367 kts 244°
2026-05-07 16:56 41.98676 3.32567 23355 ft 367 kts 245°
2026-05-07 16:56 41.96596 3.26336 22592 ft 364 kts 245°
2026-05-07 16:57 41.95569 3.23269 22231 ft 363 kts 245°
2026-05-07 16:57 41.94652 3.20110 21859 ft 363 kts 252°
2026-05-07 16:57 41.94063 3.16820 21482 ft 361 kts 255°
2026-05-07 16:57 41.93500 3.13556 21123 ft 357 kts 255°
2026-05-07 16:58 41.92935 3.10312 20760 ft 355 kts 255°
2026-05-07 16:58 41.92372 3.07088 20394 ft 354 kts 255°
2026-05-07 16:58 41.91811 3.03871 20039 ft 354 kts 255°
2026-05-07 16:58 41.91248 3.00649 19668 ft 355 kts 255°
2026-05-07 16:59 41.90683 2.97426 19307 ft 354 kts 255°
2026-05-07 16:59 41.90118 2.94211 18941 ft 353 kts 255°
2026-05-07 16:59 41.89558 2.91042 18587 ft 352 kts 256°
2026-05-07 16:59 41.88988 2.87810 18220 ft 351 kts 256°
2026-05-07 17:00 41.88430 2.84660 17832 ft 350 kts 256°
2026-05-07 17:00 41.87867 2.81491 17477 ft 349 kts 256°
2026-05-07 17:00 41.87306 2.78324 17129 ft 347 kts 256°
2026-05-07 17:00 41.86749 2.75177 16780 ft 346 kts 256°
2026-05-07 17:01 41.86192 2.72042 16424 ft 345 kts 256°
2026-05-07 17:01 41.85634 2.68919 16071 ft 343 kts 256°
2026-05-07 17:01 41.85079 2.65812 15723 ft 341 kts 256°
2026-05-07 17:01 41.84528 2.62720 15370 ft 341 kts 256°
2026-05-07 17:02 41.83979 2.59645 15022 ft 338 kts 256°
2026-05-07 17:02 41.83436 2.56622 14682 ft 336 kts 256°
2026-05-07 17:02 41.82890 2.53583 14336 ft 335 kts 256°
2026-05-07 17:02 41.82344 2.50554 13994 ft 334 kts 256°
2026-05-07 17:03 41.81798 2.47520 13642 ft 335 kts 256°
2026-05-07 17:03 41.81251 2.44489 13278 ft 333 kts 256°
2026-05-07 17:03 41.80707 2.41474 12937 ft 331 kts 256°
2026-05-07 17:03 41.80164 2.38475 12595 ft 331 kts 256°
2026-05-07 17:04 41.79620 2.35482 12256 ft 331 kts 256°
2026-05-07 17:04 41.79075 2.32487 11917 ft 330 kts 256°
2026-05-07 17:04 41.78531 2.29503 11583 ft 329 kts 256°
2026-05-07 17:04 41.77982 2.26534 11244 ft 327 kts 255°
2026-05-07 17:05 41.77101 2.23737 10919 ft 326 kts 239°
2026-05-07 17:05 41.75705 2.21355 10583 ft 326 kts 224°
2026-05-07 17:05 41.73914 2.19591 10302 ft 321 kts 208°
2026-05-07 17:05 41.71855 2.18509 10179 ft 309 kts 195°
2026-05-07 17:06 41.69823 2.17749 10026 ft 299 kts 196°
2026-05-07 17:06 41.67870 2.17006 9881 ft 293 kts 196°
2026-05-07 17:06 41.65909 2.16254 9726 ft 293 kts 196°
2026-05-07 17:06 41.63931 2.15498 9524 ft 291 kts 196°
2026-05-07 17:07 41.62011 2.14769 9311 ft 290 kts 195°
2026-05-07 17:07 41.60069 2.14031 9119 ft 290 kts 195°
2026-05-07 17:07 41.58134 2.13296 8910 ft 289 kts 195°
2026-05-07 17:07 41.56200 2.12562 8707 ft 288 kts 195°
2026-05-07 17:08 41.54278 2.11815 8501 ft 288 kts 199°
2026-05-07 17:08 41.52506 2.10601 8302 ft 286 kts 215°
2026-05-07 17:08 41.51057 2.08792 8086 ft 287 kts 231°
2026-05-07 17:08 41.49970 2.06559 7888 ft 286 kts 239°
2026-05-07 17:09 41.48938 2.04281 7686 ft 288 kts 238°
2026-05-07 17:09 41.47911 2.02039 7477 ft 286 kts 238°
2026-05-07 17:09 41.46871 1.99779 7272 ft 284 kts 238°
2026-05-07 17:09 41.45840 1.97537 7068 ft 284 kts 238°
2026-05-07 17:10 41.44803 1.95285 6866 ft 284 kts 237°
2026-05-07 17:10 41.43768 1.93037 6663 ft 285 kts 237°
2026-05-07 17:10 41.42735 1.90790 6463 ft 283 kts 237°
2026-05-07 17:10 41.41711 1.88563 6261 ft 281 kts 238°
2026-05-07 17:11 41.40696 1.86355 6069 ft 279 kts 237°
2026-05-07 17:11 41.39679 1.84147 5871 ft 279 kts 238°
2026-05-07 17:11 41.38663 1.81950 5673 ft 278 kts 237°
2026-05-07 17:11 41.37647 1.79761 5465 ft 276 kts 237°
2026-05-07 17:12 41.36645 1.77599 5290 ft 269 kts 237°
2026-05-07 17:12 41.35694 1.75549 5167 ft 257 kts 236°
2026-05-07 17:12 41.34512 1.73874 5014 ft 243 kts 210°
2026-05-07 17:12 41.32965 1.73177 4874 ft 231 kts 181°
2026-05-07 17:13 41.31390 1.73485 4772 ft 230 kts 156°
2026-05-07 17:13 41.29931 1.74349 4624 ft 229 kts 153°
2026-05-07 17:13 41.28474 1.75231 4459 ft 230 kts 154°
2026-05-07 17:13 41.27023 1.76109 4287 ft 228 kts 153°
2026-05-07 17:14 41.25689 1.77216 4133 ft 226 kts 141°
2026-05-07 17:14 41.24442 1.78508 3983 ft 227 kts 141°
2026-05-07 17:14 41.23234 1.79816 3822 ft 225 kts 133°
2026-05-07 17:14 41.22348 1.81504 3648 ft 217 kts 114°
2026-05-07 17:15 41.21957 1.83366 3497 ft 210 kts 96°
2026-05-07 17:15 41.22037 1.85269 3328 ft 205 kts 77°
2026-05-07 17:15 41.22528 1.86994 3232 ft 196 kts 67°
2026-05-07 17:15 41.23092 1.88621 3033 ft 191 kts 67°
2026-05-07 17:16 41.23639 1.90202 2783 ft 185 kts 66°
2026-05-07 17:16 41.24168 1.91735 2533 ft 179 kts 67°
2026-05-07 17:16 41.24683 1.93227 2305 ft 176 kts 66°
2026-05-07 17:16 41.25185 1.94684 2070 ft 170 kts 66°
2026-05-07 17:17 41.25664 1.96073 1874 ft 157 kts 66°
2026-05-07 17:17 41.26096 1.97329 1645 ft 143 kts 67°
2026-05-07 17:17 41.26486 1.98462 1457 ft 130 kts 67°
2026-05-07 17:17 41.26855 1.99534 1298 ft 131 kts 66°
2026-05-07 17:18 41.27244 2.00657 1098 ft 135 kts 67°
2026-05-07 17:18 41.27631 2.01777 945 ft 132 kts 67°
2026-05-07 17:18 41.28006 2.02889 746 ft 131 kts 68°
2026-05-07 17:18 41.28391 2.03998 569 ft 131 kts 68°
2026-05-07 17:19 41.28771 2.05101 399 ft 134 kts 67°
2026-05-07 17:19 41.29158 2.06227 224 ft 134 kts 67°
2026-05-07 17:19 41.29545 2.07359 39 ft 134 kts 68°
2026-05-07 17:19 41.29892 2.08380 21 ft 103 kts 66°
2026-05-07 17:20 41.30115 2.09034 17 ft 53 kts 68°
2026-05-07 17:20 41.30129 2.09340 15 ft 16 kts 101°
2026-05-07 17:20 41.30105 2.09418 18 ft 8 kts 137°
2026-05-07 17:20 41.30058 2.09408 18 ft 14 kts 228°
2026-05-07 17:21 41.30014 2.09284 17 ft 15 kts 247°
2026-05-07 17:21 41.29976 2.09166 18 ft 14 kts 246°
2026-05-07 17:21 41.29918 2.09006 17 ft 22 kts 243°
2026-05-07 17:21 41.29856 2.08826 18 ft 22 kts 246°
2026-05-07 17:22 41.29794 2.08642 18 ft 22 kts 245°
2026-05-07 17:22 41.29731 2.08461 18 ft 21 kts 245°
2026-05-07 17:22 41.29670 2.08289 18 ft 20 kts 244°
2026-05-07 17:22 41.29612 2.08129 18 ft 18 kts 244°
2026-05-07 17:23 41.29561 2.07982 19 ft 17 kts 248°
2026-05-07 17:23 41.29518 2.07848 18 ft 15 kts 244°
2026-05-07 17:23 41.29477 2.07728 18 ft 14 kts 245°
2026-05-07 17:23 41.29409 2.07692 18 ft 9 kts 169°
2026-05-07 17:24 41.29350 2.07733 18 ft 10 kts 153°
2026-05-07 17:24 41.29286 2.07774 18 ft 11 kts 154°
2026-05-07 17:24 41.29211 2.07807 18 ft 12 kts 170°
2026-05-07 17:24 41.29134 2.07840 19 ft 8 kts 154°
2026-05-07 17:25 41.29111 2.07853 20 ft 1 kts 155°
2026-05-07 17:25 41.29109 2.07854 19 ft 0 kts 155°